Location: Bishopstone
(51.0167°N, 1.9000°W)
Time: 13:31:51
(UTC+00:00)

Cosmos 1892 Rocket - Pass Details

Date: 16 September 2019
Orbit: 605 x 634 km, 82.5° (Epoch: 16 October)

Event Time Altitude Azimuth Distance (km) Brightness Sun altitude
Rises 20:30:58 0° 346° (NNW) 2,939 7.7 -20.2°
Reaches altitude 10° 20:33:14 10° 342° (NNW) 2,023 6.9 -20.5°
Maximum altitude 20:37:38 57° 265° (W) 747 4.1 -21.1°
Enters shadow 20:40:07 24° 195° (SSW) 1,297 5.0 -21.4°
